| time (UTC) | temp F | wind direction | speed MPH | gust MPH | rain 1hr in | rain 24hr in | rain mn in | humidity % | barometer mb |
| 20260510223917 | 103 | 110 | 7.0 | 17.0 | 0.00 | 0.00 | 0.00 | 5 | 1010.4 |
| 20260510223417 | 102 | 110 | 5.0 | 12.0 | 0.00 | 0.00 | 0.00 | 5 | 1010.5 |
| 20260510222917 | 102 | 110 | 1.0 | 13.0 | 0.00 | 0.00 | 0.00 | 5 | 1010.6 |
| 20260510222417 | 103 | 110 | 11.0 | 22.0 | 0.00 | 0.00 | 0.00 | 5 | 1010.7 |
| 20260510221917 | 103 | 110 | 12.0 | 22.0 | 0.00 | 0.00 | 0.00 | 5 | 1010.7 |
| 20260510221417 | 103 | 110 | 2.0 | 12.0 | 0.00 | 0.00 | 0.00 | 5 | 1010.7 |
| 20260510220917 | 103 | 110 | 9.0 | 16.0 | 0.00 | 0.00 | 0.00 | 5 | 1010.8 |
| 20260510220417 | 103 | 110 | 13.0 | 17.0 | 0.00 | 0.00 | 0.00 | 5 | 1010.8 |
| 20260510215917 | 103 | 110 | 11.0 | 15.0 | 0.00 | 0.00 | 0.00 | 5 | 1010.9 |
| 20260510215417 | 104 | 110 | 5.0 | 16.0 | 0.00 | 0.00 | 0.00 | 6 | 1010.9 |
| 20260510214917 | 104 | 110 | 3.0 | 15.0 | 0.00 | 0.00 | 0.00 | 6 | 1011.0 |
| 20260510214417 | 104 | 110 | 8.0 | 14.0 | 0.00 | 0.00 | 0.00 | 6 | 1011.1 |
| 20260510213917 | 103 | 110 | 7.0 | 16.0 | 0.00 | 0.00 | 0.00 | 6 | 1011.2 |
| 20260510213417 | 102 | 110 | 9.0 | 16.0 | 0.00 | 0.00 | 0.00 | 6 | 1011.3 |
| 20260510212917 | 103 | 110 | 12.0 | 16.0 | 0.00 | 0.00 | 0.00 | 5 | 1011.3 |
| 20260510212418 | 104 | 110 | 9.0 | 18.0 | 0.00 | 0.00 | 0.00 | 6 | 1011.3 |
| 20260510211918 | 103 | 110 | 10.0 | 15.0 | 0.00 | 0.00 | 0.00 | 6 | 1011.4 |
| 20260510211417 | 103 | 110 | 5.0 | 14.0 | 0.00 | 0.00 | 0.00 | 6 | 1011.4 |
| 20260510210917 | 103 | 110 | 7.0 | 10.0 | 0.00 | 0.00 | 0.00 | 6 | 1011.6 |
| 20260510210417 | 103 | 110 | 5.0 | 13.0 | 0.00 | 0.00 | 0.00 | 6 | 1011.6 |
| 20260510205917 | 102 | 110 | 11.0 | 14.0 | 0.00 | 0.00 | 0.00 | 6 | 1011.7 |
| 20260510205417 | 102 | 110 | 2.0 | 14.0 | 0.00 | 0.00 | 0.00 | 6 | 1011.7 |
| 20260510204917 | 102 | 110 | 8.0 | 13.0 | 0.00 | 0.00 | 0.00 | 6 | 1011.8 |
| 20260510204417 | 102 | 110 | 4.0 | 11.0 | 0.00 | 0.00 | 0.00 | 6 | 1011.8 |
| 20260510203918 | 103 | 110 | 10.0 | 12.0 | 0.00 | 0.00 | 0.00 | 6 | 1011.9 |
| 20260510203417 | 102 | 110 | 3.0 | 11.0 | 0.00 | 0.00 | 0.00 | 6 | 1012.0 |
| 20260510202917 | 102 | 110 | 10.0 | 12.0 | 0.00 | 0.00 | 0.00 | 6 | 1012.0 |
| 20260510202418 | 102 | 110 | 9.0 | 9.0 | 0.00 | 0.00 | 0.00 | 6 | 1012.1 |
| 20260510201917 | 102 | 110 | 7.0 | 10.0 | 0.00 | 0.00 | 0.00 | 6 | 1012.1 |
| 20260510201419 | 101 | 110 | 9.0 | 11.0 | 0.00 | 0.00 | 0.00 | 6 | 1012.1 |
| 20260510200917 | 100 | 110 | 5.0 | 7.0 | 0.00 | 0.00 | 0.00 | 6 | 1012.1 |
| 20260510200417 | 101 | 110 | 1.0 | 12.0 | 0.00 | 0.00 | 0.00 | 6 | 1012.2 |
| 20260510195917 | 100 | 110 | 2.0 | 10.0 | 0.00 | 0.00 | 0.00 | 7 | 1012.2 |
| 20260510195417 | 102 | 110 | 10.0 | 10.0 | 0.00 | 0.00 | 0.00 | 6 | 1012.2 |
| 20260510194917 | 101 | 110 | 4.0 | 12.0 | 0.00 | 0.00 | 0.00 | 6 | 1012.3 |
| 20260510194417 | 100 | 110 | 2.0 | 8.0 | 0.00 | 0.00 | 0.00 | 7 | 1012.3 |
| 20260510193917 | 100 | 110 | 5.0 | 8.0 | 0.00 | 0.00 | 0.00 | 6 | 1012.3 |
| 20260510193417 | 100 | 110 | 3.0 | 13.0 | 0.00 | 0.00 | 0.00 | 6 | 1012.3 |
| 20260510192917 | 99 | 110 | 7.0 | 10.0 | 0.00 | 0.00 | 0.00 | 6 | 1012.4 |
| 20260510192417 | 100 | 110 | 4.0 | 13.0 | 0.00 | 0.00 | 0.00 | 6 | 1012.4 |
| 20260510191918 | 99 | 110 | 5.0 | 7.0 | 0.00 | 0.00 | 0.00 | 7 | 1012.4 |
| 20260510191417 | 100 | 110 | 3.0 | 9.0 | 0.00 | 0.00 | 0.00 | 7 | 1012.4 |
| 20260510190917 | 99 | 110 | 7.0 | 8.0 | 0.00 | 0.00 | 0.00 | 7 | 1012.5 |
| 20260510190417 | 99 | 110 | 3.0 | 8.0 | 0.00 | 0.00 | 0.00 | 7 | 1012.6 |
| 20260510185917 | 99 | 110 | 9.0 | 9.0 | 0.00 | 0.00 | 0.00 | 6 | 1012.6 |
| 20260510185417 | 99 | 110 | 8.0 | 10.0 | 0.00 | 0.00 | 0.00 | 7 | 1012.6 |
| 20260510184917 | 99 | 110 | 1.0 | 9.0 | 0.00 | 0.00 | 0.00 | 7 | 1012.7 |
| 20260510184417 | 99 | 110 | 3.0 | 9.0 | 0.00 | 0.00 | 0.00 | 7 | 1012.7 |
| 20260510183917 | 98 | 110 | 9.0 | 12.0 | 0.00 | 0.00 | 0.00 | 7 | 1012.7 |
| 20260510183417 | 98 | 110 | 2.0 | 9.0 | 0.00 | 0.00 | 0.00 | 7 | 1012.7 |
| 20260510182919 | 98 | 110 | 9.0 | 13.0 | 0.00 | 0.00 | 0.00 | 7 | 1012.7 |
| 20260510182418 | 99 | 110 | 8.0 | 9.0 | 0.00 | 0.00 | 0.00 | 7 | 1012.8 |
| 20260510181917 | 98 | 110 | 2.0 | 9.0 | 0.00 | 0.00 | 0.00 | 7 | 1012.8 |
| 20260510181417 | 97 | 110 | 3.0 | 3.0 | 0.00 | 0.00 | 0.00 | 7 | 1012.9 |
| 20260510180917 | 97 | 110 | 2.0 | 5.0 | 0.00 | 0.00 | 0.00 | 7 | 1012.9 |
| 20260510180417 | 96 | 110 | 3.0 | 4.0 | 0.00 | 0.00 | 0.00 | 7 | 1012.9 |
| 20260510175917 | 96 | 110 | 0.0 | 7.0 | 0.00 | 0.00 | 0.00 | 7 | 1012.9 |
| 20260510175417 | 96 | 110 | 2.0 | 5.0 | 0.00 | 0.00 | 0.00 | 7 | 1012.9 |
| 20260510174917 | 96 | 110 | 2.0 | 7.0 | 0.00 | 0.00 | 0.00 | 7 | 1012.9 |
| 20260510174417 | 96 | 110 | 3.0 | 9.0 | 0.00 | 0.00 | 0.00 | 7 | 1012.9 |
| 20260510173917 | 95 | 110 | 7.0 | 8.0 | 0.00 | 0.00 | 0.00 | 8 | 1012.9 |
| 20260510173417 | 96 | 110 | 0.0 | 4.0 | 0.00 | 0.00 | 0.00 | 8 | 1013.0 |
| 20260510172917 | 95 | 110 | 1.0 | 4.0 | 0.00 | 0.00 | 0.00 | 8 | 1013.0 |
| 20260510172417 | 94 | 110 | 1.0 | 4.0 | 0.00 | 0.00 | 0.00 | 8 | 1012.9 |
| 20260510171917 | 95 | 110 | 2.0 | 4.0 | 0.00 | 0.00 | 0.00 | 8 | 1013.0 |
| 20260510171418 | 95 | 110 | 2.0 | 8.0 | 0.00 | 0.00 | 0.00 | 8 | 1012.9 |
| 20260510170918 | 94 | 110 | 2.0 | 7.0 | 0.00 | 0.00 | 0.00 | 8 | 1012.9 |
| 20260510170417 | 94 | 110 | 1.0 | 7.0 | 0.00 | 0.00 | 0.00 | 8 | 1012.9 |
| 20260510165918 | 93 | 110 | 1.0 | 7.0 | 0.00 | 0.00 | 0.00 | 8 | 1012.9 |
| 20260510165417 | 93 | 110 | 5.0 | 8.0 | 0.00 | 0.00 | 0.00 | 8 | 1012.8 |
| 20260510164917 | 93 | 110 | 4.0 | 7.0 | 0.00 | 0.00 | 0.00 | 9 | 1012.8 |
| 20260510164417 | 92 | 110 | 5.0 | 5.0 | 0.00 | 0.00 | 0.00 | 9 | 1012.8 |
| 20260510163917 | 92 | 110 | 3.0 | 5.0 | 0.00 | 0.00 | 0.00 | 9 | 1012.8 |
| 20260510163417 | 92 | 110 | 0.0 | 3.0 | 0.00 | 0.00 | 0.00 | 9 | 1012.9 |
| 20260510162917 | 91 | 110 | 2.0 | 8.0 | 0.00 | 0.00 | 0.00 | 9 | 1012.9 |
| 20260510162417 | 91 | 110 | 2.0 | 5.0 | 0.00 | 0.00 | 0.00 | 9 | 1012.8 |
| 20260510161917 | 91 | 110 | 4.0 | 8.0 | 0.00 | 0.00 | 0.00 | 9 | 1012.8 |
| 20260510161419 | 91 | 110 | 4.0 | 7.0 | 0.00 | 0.00 | 0.00 | 9 | 1012.8 |
| 20260510160919 | 90 | 110 | 2.0 | 5.0 | 0.00 | 0.00 | 0.00 | 9 | 1012.8 |
| 20260510160417 | 90 | 110 | 3.0 | 5.0 | 0.00 | 0.00 | 0.00 | 10 | 1012.7 |
| 20260510155917 | 90 | 110 | 1.0 | 5.0 | 0.00 | 0.00 | 0.00 | 10 | 1012.7 |
| 20260510155417 | 90 | 110 | 3.0 | 8.0 | 0.00 | 0.00 | 0.00 | 10 | 1012.7 |
| 20260510154917 | 89 | 110 | 4.0 | 8.0 | 0.00 | 0.00 | 0.00 | 10 | 1012.6 |
| 20260510154417 | 89 | 110 | 2.0 | 4.0 | 0.00 | 0.00 | 0.00 | 10 | 1012.6 |
| 20260510153917 | 88 | 110 | 2.0 | 4.0 | 0.00 | 0.00 | 0.00 | 10 | 1012.6 |
| 20260510153417 | 88 | 110 | 1.0 | 3.0 | 0.00 | 0.00 | 0.00 | 10 | 1012.6 |
| 20260510152917 | 88 | 110 | 1.0 | 5.0 | 0.00 | 0.00 | 0.00 | 10 | 1012.6 |
| 20260510152417 | 88 | 110 | 4.0 | 7.0 | 0.00 | 0.00 | 0.00 | 11 | 1012.6 |
| 20260510151917 | 87 | 110 | 2.0 | 8.0 | 0.00 | 0.00 | 0.00 | 11 | 1012.7 |
| 20260510151417 | 87 | 110 | 5.0 | 8.0 | 0.00 | 0.00 | 0.00 | 11 | 1012.6 |
| 20260510150917 | 87 | 110 | 1.0 | 5.0 | 0.00 | 0.00 | 0.00 | 11 | 1012.6 |
| 20260510150417 | 86 | 110 | 2.0 | 8.0 | 0.00 | 0.00 | 0.00 | 12 | 1012.6 |
| 20260510145917 | 86 | 110 | 3.0 | 7.0 | 0.00 | 0.00 | 0.00 | 12 | 1012.6 |
| 20260510145417 | 85 | 110 | 1.0 | 5.0 | 0.00 | 0.00 | 0.00 | 13 | 1012.7 |
| 20260510144917 | 85 | 110 | 2.0 | 5.0 | 0.00 | 0.00 | 0.00 | 13 | 1012.7 |
| 20260510144417 | 84 | 110 | 2.0 | 5.0 | 0.00 | 0.00 | 0.00 | 14 | 1012.7 |
| 20260510143917 | 84 | 110 | 0.0 | 3.0 | 0.00 | 0.00 | 0.00 | 13 | 1012.6 |
| 20260510143418 | 84 | 110 | 1.0 | 3.0 | 0.00 | 0.00 | 0.00 | 13 | 1012.6 |
| 20260510142918 | 83 | 110 | 0.0 | 1.0 | 0.00 | 0.00 | 0.00 | 12 | 1012.6 |
| 20260510142417 | 83 | 110 | 0.0 | 0.0 | 0.00 | 0.00 | 0.00 | 13 | 1012.6 |
| 20260510141918 | 83 | 110 | 0.0 | 1.0 | 0.00 | 0.00 | 0.00 | 15 | 1012.6 |
| 20260510141417 | 82 | 110 | 0.0 | 1.0 | 0.00 | 0.00 | 0.00 | 15 | 1012.5 |
| 20260510140917 | 81 | 110 | 0.0 | 0.0 | 0.00 | 0.00 | 0.00 | 14 | 1012.4 |
| 20260510140417 | 81 | 110 | 0.0 | 1.0 | 0.00 | 0.00 | 0.00 | 16 | 1012.3 |
| 20260510135917 | 80 | 110 | 0.0 | 2.0 | 0.00 | 0.00 | 0.00 | 15 | 1012.2 |
| 20260510135417 | 80 | 110 | 2.0 | 3.0 | 0.00 | 0.00 | 0.00 | 16 | 1012.2 |
| 20260510134917 | 79 | 110 | 0.0 | 2.0 | 0.00 | 0.00 | 0.00 | 16 | 1012.1 |
| 20260510134417 | 79 | 110 | 0.0 | 2.0 | 0.00 | 0.00 | 0.00 | 17 | 1012.1 |
| 20260510133918 | 78 | 110 | 0.0 | 2.0 | 0.00 | 0.00 | 0.00 | 16 | 1012.1 |
| 20260510133418 | 78 | 110 | 0.0 | 1.0 | 0.00 | 0.00 | 0.00 | 16 | 1012.1 |
| 20260510132917 | 78 | 110 | 1.0 | 4.0 | 0.00 | 0.00 | 0.00 | 15 | 1012.0 |
| 20260510132418 | 77 | 110 | 2.0 | 3.0 | 0.00 | 0.00 | 0.00 | 15 | 1012.0 |
| 20260510131917 | 77 | 110 | 1.0 | 4.0 | 0.00 | 0.00 | 0.00 | 15 | 1011.9 |
| 20260510131422 | 76 | 110 | 2.0 | 5.0 | 0.00 | 0.00 | 0.00 | 15 | 1011.9 |
| 20260510130917 | 76 | 110 | 3.0 | 7.0 | 0.00 | 0.00 | 0.00 | 15 | 1011.8 |
| 20260510130417 | 76 | 110 | 2.0 | 5.0 | 0.00 | 0.00 | 0.00 | 16 | 1011.7 |
| 20260510125918 | 75 | 110 | 4.0 | 7.0 | 0.00 | 0.00 | 0.00 | 16 | 1011.7 |
| 20260510125418 | 75 | 110 | 4.0 | 8.0 | 0.00 | 0.00 | 0.00 | 16 | 1011.6 |
| 20260510124917 | 74 | 110 | 3.0 | 5.0 | 0.00 | 0.00 | 0.00 | 17 | 1011.6 |
| 20260510124417 | 74 | 110 | 0.0 | 3.0 | 0.00 | 0.00 | 0.00 | 17 | 1011.6 |
| 20260510123917 | 75 | 110 | 2.0 | 3.0 | 0.00 | 0.00 | 0.00 | 16 | 1011.6 |
| 20260510123417 | 76 | 110 | 2.0 | 3.0 | 0.00 | 0.00 | 0.00 | 16 | 1011.5 |
| 20260510122917 | 76 | 110 | 2.0 | 4.0 | 0.00 | 0.00 | 0.00 | 15 | 1011.3 |
| 20260510122417 | 77 | 110 | 3.0 | 7.0 | 0.00 | 0.00 | 0.00 | 15 | 1011.3 |
| 20260510121922 | 76 | 110 | 3.0 | 5.0 | 0.00 | 0.00 | 0.00 | 15 | 1011.2 |
| 20260510121417 | 75 | 110 | 4.0 | 5.0 | 0.00 | 0.00 | 0.00 | 16 | 1011.3 |
| 20260510120917 | 75 | 110 | 3.0 | 5.0 | 0.00 | 0.00 | 0.00 | 16 | 1011.3 |
| 20260510120417 | 73 | 110 | 1.0 | 3.0 | 0.00 | 0.00 | 0.00 | 17 | 1011.4 |
| 20260510115917 | 71 | 110 | 2.0 | 3.0 | 0.00 | 0.00 | 0.00 | 18 | 1011.4 |
| 20260510115417 | 70 | 110 | 3.0 | 2.0 | 0.00 | 0.00 | 0.00 | 20 | 1011.4 |
| 20260510114917 | 70 | 110 | 0.0 | 3.0 | 0.00 | 0.00 | 0.00 | 19 | 1011.3 |
| 20260510114417 | 70 | 110 | 2.0 | 3.0 | 0.00 | 0.00 | 0.00 | 19 | 1011.2 |
| 20260510113917 | 71 | 110 | 0.0 | 1.0 | 0.00 | 0.00 | 0.00 | 19 | 1011.2 |
| 20260510113417 | 71 | 110 | 1.0 | 2.0 | 0.00 | 0.00 | 0.00 | 19 | 1011.2 |
| 20260510112917 | 72 | 110 | 1.0 | 3.0 | 0.00 | 0.00 | 0.00 | 18 | 1011.2 |
| 20260510112417 | 73 | 110 | 2.0 | 3.0 | 0.00 | 0.00 | 0.00 | 17 | 1011.2 |
| 20260510111917 | 73 | 110 | 2.0 | 3.0 | 0.00 | 0.00 | 0.00 | 19 | 1011.1 |
| 20260510111417 | 73 | 110 | 2.0 | 3.0 | 0.00 | 0.00 | 0.00 | 18 | 1011.1 |
| 20260510110917 | 71 | 110 | 2.0 | 3.0 | 0.00 | 0.00 | 0.00 | 19 | 1011.1 |
| 20260510110417 | 71 | 110 | 2.0 | 2.0 | 0.00 | 0.00 | 0.00 | 19 | 1011.2 |
| 20260510105917 | 71 | 110 | 1.0 | 2.0 | 0.00 | 0.00 | 0.00 | 20 | 1011.2 |
| 20260510105417 | 71 | 110 | 2.0 | 3.0 | 0.00 | 0.00 | 0.00 | 20 | 1011.2 |
| 20260510104919 | 71 | 110 | 2.0 | 4.0 | 0.00 | 0.00 | 0.00 | 21 | 1011.2 |
| 20260510104417 | 71 | 110 | 2.0 | 3.0 | 0.00 | 0.00 | 0.00 | 21 | 1011.2 |
| 20260510103918 | 71 | 110 | 2.0 | 3.0 | 0.00 | 0.00 | 0.00 | 20 | 1011.2 |
| 20260510103419 | 72 | 110 | 1.0 | 2.0 | 0.00 | 0.00 | 0.00 | 19 | 1011.1 |
| 20260510102917 | 72 | 110 | 2.0 | 4.0 | 0.00 | 0.00 | 0.00 | 19 | 1011.0 |
| 20260510102417 | 72 | 110 | 2.0 | 3.0 | 0.00 | 0.00 | 0.00 | 19 | 1010.9 |
| 20260510101919 | 72 | 110 | 4.0 | 9.0 | 0.00 | 0.00 | 0.00 | 17 | 1010.9 |
| 20260510101417 | 72 | 110 | 0.0 | 0.0 | 0.00 | 0.00 | 0.00 | 17 | 1010.7 |
| 20260510100917 | 72 | 110 | 0.0 | 2.0 | 0.00 | 0.00 | 0.00 | 17 | 1010.6 |
| 20260510100417 | 72 | 110 | 1.0 | 2.0 | 0.00 | 0.00 | 0.00 | 18 | 1010.6 |
| 20260510095917 | 71 | 110 | 2.0 | 3.0 | 0.00 | 0.00 | 0.00 | 18 | 1010.6 |
| 20260510095417 | 72 | 110 | 2.0 | 3.0 | 0.00 | 0.00 | 0.00 | 18 | 1010.6 |
| 20260510094917 | 72 | 110 | 2.0 | 2.0 | 0.00 | 0.00 | 0.00 | 18 | 1010.6 |
| 20260510094417 | 72 | 110 | 0.0 | 0.0 | 0.00 | 0.00 | 0.00 | 18 | 1010.6 |
| 20260510093917 | 72 | 110 | 0.0 | 2.0 | 0.00 | 0.00 | 0.00 | 17 | 1010.6 |
| 20260510093418 | 73 | 110 | 2.0 | 2.0 | 0.00 | 0.00 | 0.00 | 17 | 1010.6 |
| 20260510092917 | 73 | 110 | 0.0 | 1.0 | 0.00 | 0.00 | 0.00 | 17 | 1010.6 |
| 20260510092418 | 73 | 110 | 0.0 | 3.0 | 0.00 | 0.00 | 0.00 | 17 | 1010.5 |
| 20260510091917 | 73 | 110 | 3.0 | 3.0 | 0.00 | 0.00 | 0.00 | 17 | 1010.5 |
| 20260510091417 | 73 | 110 | 2.0 | 2.0 | 0.00 | 0.00 | 0.00 | 17 | 1010.5 |
| 20260510090918 | 74 | 110 | 0.0 | 2.0 | 0.00 | 0.00 | 0.00 | 16 | 1010.5 |
| 20260510090417 | 74 | 110 | 1.0 | 2.0 | 0.00 | 0.00 | 0.00 | 16 | 1010.4 |
| 20260510085918 | 74 | 110 | 0.0 | 2.0 | 0.00 | 0.00 | 0.00 | 16 | 1010.4 |
| 20260510085417 | 75 | 110 | 2.0 | 2.0 | 0.00 | 0.00 | 0.00 | 16 | 1010.4 |
| 20260510084917 | 75 | 110 | 1.0 | 3.0 | 0.00 | 0.00 | 0.00 | 16 | 1010.4 |
| 20260510084417 | 75 | 110 | 0.0 | 3.0 | 0.00 | 0.00 | 0.00 | 15 | 1010.3 |
| 20260510083917 | 74 | 110 | 0.0 | 4.0 | 0.00 | 0.00 | 0.00 | 16 | 1010.3 |
| 20260510083417 | 74 | 110 | 2.0 | 3.0 | 0.00 | 0.00 | 0.00 | 17 | 1010.3 |
| 20260510082917 | 75 | 110 | 0.0 | 1.0 | 0.00 | 0.00 | 0.00 | 16 | 1010.2 |
| 20260510082417 | 75 | 110 | 0.0 | 1.0 | 0.00 | 0.00 | 0.00 | 16 | 1010.3 |
| 20260510081917 | 75 | 110 | 0.0 | 2.0 | 0.00 | 0.00 | 0.00 | 16 | 1010.3 |
| 20260510081418 | 76 | 110 | 1.0 | 2.0 | 0.00 | 0.00 | 0.00 | 15 | 1010.2 |
| 20260510080917 | 76 | 110 | 0.0 | 3.0 | 0.00 | 0.00 | 0.00 | 15 | 1010.3 |
| 20260510080417 | 76 | 110 | 2.0 | 2.0 | 0.00 | 0.00 | 0.00 | 15 | 1010.3 |
| 20260510075917 | 77 | 110 | 2.0 | 3.0 | 0.00 | 0.00 | 0.00 | 15 | 1010.3 |
| 20260510075419 | 77 | 110 | 1.0 | 5.0 | 0.00 | 0.00 | 0.00 | 15 | 1010.3 |
| 20260510074917 | 77 | 110 | 0.0 | 2.0 | 0.00 | 0.00 | 0.00 | 15 | 1010.3 |
| 20260510074417 | 78 | 110 | 0.0 | 0.0 | 0.00 | 0.00 | 0.00 | 14 | 1010.4 |
| 20260510073918 | 79 | 110 | 0.0 | 0.0 | 0.00 | 0.00 | 0.00 | 14 | 1010.4 |
| 20260510073417 | 80 | 110 | 0.0 | 3.0 | 0.00 | 0.00 | 0.00 | 13 | 1010.4 |
| 20260510072918 | 81 | 110 | 0.0 | 2.0 | 0.00 | 0.00 | 0.00 | 13 | 1010.5 |
| 20260510072417 | 81 | 110 | 2.0 | 4.0 | 0.00 | 0.00 | 0.00 | 12 | 1010.5 |
| 20260510071917 | 82 | 110 | 0.0 | 1.0 | 0.00 | 0.00 | 0.00 | 12 | 1010.4 |
| 20260510071417 | 84 | 110 | 0.0 | 2.0 | 0.00 | 0.00 | 0.00 | 11 | 1010.5 |
| 20260510070917 | 85 | 110 | 2.0 | 4.0 | 0.00 | 0.00 | 0.00 | 10 | 1010.5 |
| 20260510070417 | 85 | 110 | 1.0 | 5.0 | 0.00 | 0.00 | 0.00 | 10 | 1010.5 |
| 20260510065917 | 84 | 110 | 8.0 | 10.0 | 0.00 | 0.00 | 0.00 | 11 | 1010.4 |
| 20260510065417 | 84 | 110 | 1.0 | 4.0 | 0.00 | 0.00 | 0.00 | 11 | 1010.4 |
| 20260510064918 | 84 | 110 | 2.0 | 5.0 | 0.00 | 0.00 | 0.00 | 11 | 1010.3 |
| 20260510064417 | 84 | 110 | 2.0 | 5.0 | 0.00 | 0.00 | 0.00 | 11 | 1010.3 |
| 20260510063917 | 84 | 110 | 3.0 | 5.0 | 0.00 | 0.00 | 0.00 | 11 | 1010.3 |
| 20260510063417 | 83 | 110 | 2.0 | 5.0 | 0.00 | 0.00 | 0.00 | 11 | 1010.2 |
| 20260510062917 | 83 | 110 | 2.0 | 3.0 | 0.00 | 0.00 | 0.00 | 11 | 1010.2 |
| 20260510062417 | 84 | 110 | 2.0 | 3.0 | 0.00 | 0.00 | 0.00 | 11 | 1010.2 |
| 20260510061917 | 84 | 110 | 4.0 | 5.0 | 0.00 | 0.00 | 0.00 | 11 | 1010.2 |
| 20260510061417 | 84 | 110 | 2.0 | 7.0 | 0.00 | 0.00 | 0.00 | 11 | 1010.2 |
| 20260510060917 | 84 | 110 | 2.0 | 5.0 | 0.00 | 0.00 | 0.00 | 11 | 1010.1 |
| 20260510060417 | 85 | 110 | 3.0 | 5.0 | 0.00 | 0.00 | 0.00 | 11 | 1010.0 |
| 20260510055918 | 85 | 110 | 3.0 | 8.0 | 0.00 | 0.00 | 0.00 | 11 | 1010.0 |
| 20260510055417 | 84 | 110 | 4.0 | 5.0 | 0.00 | 0.00 | 0.00 | 11 | 1010.0 |
| 20260510054917 | 84 | 110 | 2.0 | 4.0 | 0.00 | 0.00 | 0.00 | 11 | 1010.0 |
| 20260510054417 | 84 | 110 | 2.0 | 5.0 | 0.00 | 0.00 | 0.00 | 11 | 1009.9 |
| 20260510053917 | 84 | 110 | 2.0 | 4.0 | 0.00 | 0.00 | 0.00 | 11 | 1009.9 |
| 20260510053418 | 84 | 110 | 3.0 | 5.0 | 0.00 | 0.00 | 0.00 | 11 | 1009.9 |
| 20260510052917 | 84 | 110 | 0.0 | 4.0 | 0.00 | 0.00 | 0.00 | 11 | 1009.9 |
| 20260510052417 | 84 | 110 | 2.0 | 4.0 | 0.00 | 0.00 | 0.00 | 11 | 1009.8 |
| 20260510051918 | 84 | 110 | 3.0 | 5.0 | 0.00 | 0.00 | 0.00 | 11 | 1009.8 |
| 20260510051417 | 84 | 110 | 2.0 | 4.0 | 0.00 | 0.00 | 0.00 | 11 | 1009.8 |
| 20260510050917 | 84 | 110 | 3.0 | 4.0 | 0.00 | 0.00 | 0.00 | 11 | 1009.7 |
| 20260510050417 | 84 | 110 | 3.0 | 3.0 | 0.00 | 0.00 | 0.00 | 11 | 1009.7 |
| 20260510045917 | 84 | 110 | 2.0 | 3.0 | 0.00 | 0.00 | 0.00 | 11 | 1009.7 |
| 20260510045417 | 85 | 110 | 2.0 | 4.0 | 0.00 | 0.00 | 0.00 | 11 | 1009.6 |
| 20260510044917 | 85 | 110 | 2.0 | 2.0 | 0.00 | 0.00 | 0.00 | 11 | 1009.6 |
| 20260510044418 | 84 | 110 | 2.0 | 3.0 | 0.00 | 0.00 | 0.00 | 11 | 1009.6 |
| 20260510043917 | 84 | 110 | 2.0 | 3.0 | 0.00 | 0.00 | 0.00 | 11 | 1009.5 |
| 20260510043417 | 83 | 110 | 1.0 | 3.0 | 0.00 | 0.00 | 0.00 | 12 | 1009.5 |
| 20260510042917 | 84 | 110 | 1.0 | 3.0 | 0.00 | 0.00 | 0.00 | 12 | 1009.4 |
| 20260510042417 | 84 | 110 | 2.0 | 3.0 | 0.00 | 0.00 | 0.00 | 12 | 1009.4 |
| 20260510041917 | 84 | 110 | 3.0 | 3.0 | 0.00 | 0.00 | 0.00 | 12 | 1009.3 |
| 20260510041417 | 85 | 110 | 1.0 | 2.0 | 0.00 | 0.00 | 0.00 | 12 | 1009.3 |
| 20260510040917 | 85 | 110 | 2.0 | 2.0 | 0.00 | 0.00 | 0.00 | 12 | 1009.3 |
| 20260510040417 | 85 | 110 | 1.0 | 2.0 | 0.00 | 0.00 | 0.00 | 12 | 1009.3 |
| 20260510035918 | 85 | 110 | 1.0 | 3.0 | 0.00 | 0.00 | 0.00 | 12 | 1009.2 |
| 20260510035417 | 85 | 110 | 2.0 | 2.0 | 0.00 | 0.00 | 0.00 | 12 | 1009.1 |
| 20260510034917 | 85 | 110 | 1.0 | 2.0 | 0.00 | 0.00 | 0.00 | 12 | 1009.1 |
| 20260510034417 | 85 | 110 | 1.0 | 3.0 | 0.00 | 0.00 | 0.00 | 12 | 1009.0 |
| 20260510033917 | 85 | 110 | 2.0 | 2.0 | 0.00 | 0.00 | 0.00 | 12 | 1009.0 |
| 20260510033417 | 86 | 110 | 1.0 | 2.0 | 0.00 | 0.00 | 0.00 | 12 | 1008.9 |
| 20260510032917 | 86 | 110 | 1.0 | 2.0 | 0.00 | 0.00 | 0.00 | 12 | 1008.8 |
| 20260510032417 | 86 | 110 | 1.0 | 2.0 | 0.00 | 0.00 | 0.00 | 12 | 1008.8 |
| 20260510031917 | 87 | 110 | 1.0 | 2.0 | 0.00 | 0.00 | 0.00 | 12 | 1008.8 |
| 20260510031417 | 87 | 110 | 0.0 | 2.0 | 0.00 | 0.00 | 0.00 | 12 | 1008.7 |
| 20260510030917 | 87 | 110 | 0.0 | 2.0 | 0.00 | 0.00 | 0.00 | 11 | 1008.6 |
| 20260510030417 | 88 | 110 | 0.0 | 2.0 | 0.00 | 0.00 | 0.00 | 11 | 1008.5 |
| 20260510025917 | 88 | 110 | 0.0 | 2.0 | 0.00 | 0.00 | 0.00 | 11 | 1008.5 |
| 20260510025419 | 89 | 110 | 1.0 | 2.0 | 0.00 | 0.00 | 0.00 | 11 | 1008.5 |
| 20260510024917 | 90 | 110 | 1.0 | 3.0 | 0.00 | 0.00 | 0.00 | 10 | 1008.4 |
| 20260510024417 | 91 | 110 | 1.0 | 3.0 | 0.00 | 0.00 | 0.00 | 10 | 1008.3 |
| 20260510023917 | 92 | 110 | 1.0 | 7.0 | 0.00 | 0.00 | 0.00 | 9 | 1008.3 |
| 20260510023417 | 93 | 110 | 3.0 | 5.0 | 0.00 | 0.00 | 0.00 | 9 | 1008.2 |
| 20260510022917 | 93 | 110 | 4.0 | 5.0 | 0.00 | 0.00 | 0.00 | 9 | 1008.1 |
| 20260510022417 | 94 | 110 | 2.0 | 4.0 | 0.00 | 0.00 | 0.00 | 9 | 1008.1 |
| 20260510021917 | 94 | 110 | 7.0 | 9.0 | 0.00 | 0.00 | 0.00 | 8 | 1008.0 |
| 20260510021417 | 95 | 110 | 5.0 | 10.0 | 0.00 | 0.00 | 0.00 | 8 | 1008.0 |
| 20260510020917 | 95 | 110 | 3.0 | 10.0 | 0.00 | 0.00 | 0.00 | 8 | 1008.0 |
| 20260510020419 | 95 | 110 | 2.0 | 11.0 | 0.00 | 0.00 | 0.00 | 8 | 1008.0 |
| 20260510015917 | 96 | 110 | 5.0 | 10.0 | 0.00 | 0.00 | 0.00 | 8 | 1007.9 |
| 20260510015417 | 96 | 110 | 8.0 | 12.0 | 0.00 | 0.00 | 0.00 | 8 | 1007.9 |
| 20260510014918 | 96 | 110 | 5.0 | 12.0 | 0.00 | 0.00 | 0.00 | 8 | 1007.8 |
| 20260510014417 | 97 | 110 | 5.0 | 8.0 | 0.00 | 0.00 | 0.00 | 8 | 1007.8 |
| 20260510013917 | 97 | 110 | 3.0 | 8.0 | 0.00 | 0.00 | 0.00 | 8 | 1007.8 |
| 20260510013417 | 97 | 110 | 5.0 | 14.0 | 0.00 | 0.00 | 0.00 | 8 | 1007.8 |
| 20260510012917 | 98 | 110 | 10.0 | 14.0 | 0.00 | 0.00 | 0.00 | 7 | 1007.8 |
| 20260510012417 | 98 | 110 | 7.0 | 10.0 | 0.00 | 0.00 | 0.00 | 8 | 1007.8 |
| 20260510011917 | 98 | 110 | 3.0 | 7.0 | 0.00 | 0.00 | 0.00 | 7 | 1007.8 |
| 20260510011417 | 98 | 110 | 4.0 | 10.0 | 0.00 | 0.00 | 0.00 | 7 | 1007.9 |
| 20260510010917 | 98 | 110 | 9.0 | 16.0 | 0.00 | 0.00 | 0.00 | 7 | 1007.9 |
| 20260510010417 | 99 | 110 | 5.0 | 14.0 | 0.00 | 0.00 | 0.00 | 7 | 1007.9 |
| 20260510005917 | 99 | 110 | 10.0 | 13.0 | 0.00 | 0.00 | 0.00 | 7 | 1008.0 |
| 20260510005417 | 99 | 110 | 7.0 | 12.0 | 0.00 | 0.00 | 0.00 | 7 | 1007.9 |
| 20260510004917 | 99 | 110 | 4.0 | 9.0 | 0.00 | 0.00 | 0.00 | 7 | 1008.0 |
| 20260510004417 | 99 | 110 | 3.0 | 10.0 | 0.00 | 0.00 | 0.00 | 7 | 1008.0 |
| 20260510003917 | 99 | 110 | 8.0 | 13.0 | 0.00 | 0.00 | 0.00 | 7 | 1007.9 |
| 20260510003417 | 99 | 110 | 2.0 | 11.0 | 0.00 | 0.00 | 0.00 | 7 | 1007.9 |
| 20260510002917 | 99 | 110 | 8.0 | 13.0 | 0.00 | 0.00 | 0.00 | 7 | 1008.0 |
| 20260510002417 | 99 | 110 | 5.0 | 11.0 | 0.00 | 0.00 | 0.00 | 7 | 1008.0 |
| 20260510001917 | 100 | 110 | 12.0 | 13.0 | 0.00 | 0.00 | 0.00 | 7 | 1008.1 |
| 20260510001417 | 100 | 110 | 10.0 | 13.0 | 0.00 | 0.00 | 0.00 | 7 | 1008.0 |
| 20260510000917 | 100 | 110 | 10.0 | 16.0 | 0.00 | 0.00 | 0.00 | 7 | 1008.0 |
| 20260510000418 | 101 | 110 | 8.0 | 9.0 | 0.00 | 0.00 | 0.00 | 7 | 1008.1 |
| 20260509235917 | 101 | 110 | 5.0 | 11.0 | 0.00 | 0.00 | 0.00 | 7 | 1008.1 |
| 20260509235417 | 100 | 110 | 7.0 | 16.0 | 0.00 | 0.00 | 0.00 | 7 | 1008.2 |
| 20260509234917 | 100 | 110 | 5.0 | 16.0 | 0.00 | 0.00 | 0.00 | 7 | 1008.2 |
| 20260509234417 | 101 | 110 | 8.0 | 8.0 | 0.00 | 0.00 | 0.00 | 7 | 1008.1 |
| 20260509233917 | 100 | 110 | 5.0 | 11.0 | 0.00 | 0.00 | 0.00 | 7 | 1008.2 |
| 20260509233417 | 101 | 110 | 5.0 | 19.0 | 0.00 | 0.00 | 0.00 | 7 | 1008.3 |
| 20260509232917 | 101 | 110 | 8.0 | 12.0 | 0.00 | 0.00 | 0.00 | 7 | 1008.3 |
| 20260509232417 | 100 | 110 | 4.0 | 10.0 | 0.00 | 0.00 | 0.00 | 7 | 1008.3 |
| 20260509231918 | 101 | 110 | 8.0 | 13.0 | 0.00 | 0.00 | 0.00 | 7 | 1008.4 |
| 20260509231417 | 101 | 110 | 9.0 | 16.0 | 0.00 | 0.00 | 0.00 | 7 | 1008.4 |
| 20260509230917 | 101 | 110 | 9.0 | 13.0 | 0.00 | 0.00 | 0.00 | 7 | 1008.4 |
| 20260509230418 | 101 | 110 | 4.0 | 13.0 | 0.00 | 0.00 | 0.00 | 7 | 1008.5 |
| 20260509225917 | 101 | 110 | 7.0 | 12.0 | 0.00 | 0.00 | 0.00 | 7 | 1008.6 |
| 20260509225419 | 101 | 110 | 5.0 | 14.0 | 0.00 | 0.00 | 0.00 | 7 | 1008.6 |
| 20260509224917 | 101 | 110 | 7.0 | 15.0 | 0.00 | 0.00 | 0.00 | 7 | 1008.6 |
| 20260509224418 | 101 | 110 | 4.0 | 12.0 | 0.00 | 0.00 | 0.00 | 7 | 1008.7 |